STARLINK-1461 (45730 NORAD) Tracking and Keplerian Element Data

This shows tracking and keplerian element data for the satellite.

Feedback or suggestion? Click here.




ElementValue
Catalog45730
NameSTARLINK-1461
Epoch Orbit461
Epoch Day186.50001157
Epoch Year2020
RAAN193.4774
Inclination52.9999
Eccentricity0.0001344
Argument of Perigee115.3443
Mean Anonmoly91.463
Mean Motion15.59708227
Decay Rate-0.01185191
L11 45730U 20038A 20186.50001157 -.01185191 00000-0 -16175-1 0 9997
L22 45730 52.9999 193.4774 0001344 115.3443 91.4630 15.59708227 4612

Live tracking and technical data element details for STARLINK-1461 (NORAD 45730). STARLINK-1461 can be tracked NOW for your location showing map with azimuth and elevation plus other details from your city location.

Track the satellite on the map from your city or location and see movement details for azimuth, elevation, latitude, longitude, range, height, and movement on the map or in text.







IsCatalogInMostPopularTable: catalog: 45730, numindb: 4
Update: records affected: 1



GetName: 45730 STARLINK-1461

Hit Count: updated at: Sun, 05 Jul 2020 17:32:00 GMT